Location: Fensholt
(55.9856°N, 10.0808°E)
Time: 11:56:40
(UTC+00:00)

NOSS 7 (E) - Pass Details

Date: 07 June 2020
Orbit: 394 x 1777 km, 63.3° (Epoch: 02 July)

Event Time Altitude Azimuth Distance (km) Brightness Sun altitude
Exits shadow 00:09:39 15° 213° (SSW) 1,275 6.1 -10.5°
Maximum altitude 00:12:13 55° 137° (SE) 495 4.4 -10.4°
Drops below altitude 10° 00:15:13 10° 58° (ENE) 1,447 7.7 -10.3°
Sets 00:17:16 0° 54° (NE) 2,334 8.9 -10.3°
